Home   Weather   Campinas   Past weeks

Flag for Brazil Past Weather in Campinas, São Paulo, Brazil — Yesterday and Last 2 Weeks

Now
59 °F

Clear.


Feels Like: 55 °F
Forecast: 57 / 84 °F
Wind: 21 mph from East

Location: Campinas Aeroporto

Current Time: Sep 27, 2016 at 10:47:25 PM

Latest Report: Sep 27, 2016 at 10:00 PM


Visibility: 10 mi

Pressure: 30.12 "Hg (27.77 "Hg at 686m altitude)

Humidity: 68%

Dew Point: 48 °F

Location of CampinasLocation

Past Weather in Campinas — Graph

°F

Campinas Temperature Yesterday

Maximum temperature yesterday: 79 °F (at 4:00 PM)
Minimum temperature yesterday: 55 °F (at 4:00 AM)
Average temperature yesterday: 65 °F

High & Low Weather Summary for the Past Weeks

 TemperatureHumidityPressure
High93 °F (Sep 18, 3:00 PM)94% (Sep 18, 10:00 PM)30.21 "Hg (Sep 18, 10:00 PM)
Low50 °F (Sep 21, 5:00 AM)11% (Sep 27, 4:00 PM)29.89 "Hg (Sep 13, 4:00 PM)
Average69 °F56%30.07 "Hg
* Reported Sep 12 9:00 PM — Sep 27 9:00 PM, Campinas, Weather by CustomWeather, © 2016

Note: Actual official high and low records may vary slightly from our data, if they occured in-between our weather recording intervals... More about our weather records

Advertising

Campinas Weather History for the Previous 24 Hours

Scroll right to see more
 ConditionsComfort  
Time TempWeatherWind HumidityBarometerVisibility
9:00 PM
Tue, Sep 27
61 °FClear.20 mph63%30.12 "Hg10 mi
8:00 PM63 °FClear.20 mph59%30.09 "Hg10 mi
7:00 PM66 °FClear.16 mph56%30.09 "Hg10 mi
6:00 PM73 °FSunny.15 mph41%30.04 "Hg10 mi
5:00 PM81 °FSunny.10 mph20%30.04 "Hg10 mi
4:00 PM82 °FSunny.3 mph11%30.04 "Hg10 mi
3:00 PM82 °FPassing clouds.9 mph12%30.04 "HgN/A
2:00 PM81 °FPassing clouds.3 mph12%30.07 "HgN/A
1:00 PM79 °FPassing clouds.9 mph15%30.09 "HgN/A
12:00 PM75 °FPassing clouds.6 mph34%30.12 "HgN/A
11:00 AM72 °FSunny.6 mph47%30.15 "Hg10 mi
10:00 AM70 °FSunny.7 mph50%30.15 "Hg10 mi
9:00 AM64 °FSunny.10 mph60%30.15 "Hg10 mi
8:00 AM61 °FSunny.12 mph68%30.15 "Hg10 mi
7:00 AM55 °FSunny.8 mph82%30.12 "Hg10 mi
6:00 AM54 °FSunny.8 mph82%30.09 "Hg10 mi
5:00 AM54 °FClear.8 mph77%30.07 "Hg10 mi
4:00 AM54 °FPassing clouds.8 mph77%30.07 "HgN/A
3:00 AM52 °FClear.9 mph82%30.07 "Hg10 mi
2:00 AM54 °FClear.12 mph77%30.09 "Hg10 mi
1:00 AM55 °FClear.14 mph72%30.09 "Hg4 mi
12:00 AM55 °FClear.15 mph77%30.09 "Hg4 mi
11:00 PM
Mon, Sep 26
57 °FClear.17 mph72%30.09 "Hg4 mi
10:00 PM57 °FClear.10 mph72%30.09 "Hg10 mi
Weather by CustomWeather, © 2016

See weather overviewHow to use our weather pages